HELIOS 1A

Satellite information

Favourite Embed

Satellite Type and Status

PAYLOADIN ORBIT

Key statistics

Satellite HELIOS 1A at a glance.

Uptime

11073

Days in orbit

Revolutions

≈ 15.0

Per day

Orbit

SSO

Sun Synchronous Orbit

Inclination

98.2

Latest

Satellite identification and parameters

Extended collection of information and parameters for HELIOS 1A.

Object identification

Identified? True

Debris? False

Object name: HELIOS 1A

International designator: 1995-033A

Object number (NORAD): 23605

Object ID (CCSDS): 23605

Country: FRANCE (FR)

Current information (Y/N): Y

RCS size: LARGE

Orbital parameters

Period: 95.739 minutes

Inclination: 98.2238 deg

SMA: 6932.449 km

Apoapsis: 564.357 km

Periapsis: 544.271 km

RAAN: 173.6919 deg

Eccentricy: 0.00144868

Argument of periapsis: 83.0885 deg

Mean anomaly: 277.1986 deg

Mean motion: 15.04086312 rev/day

Mean motion (dot): 0.00004199 rev/day2

B* drag term: 0.00030750487 1/REarth

Two-line elements (TLE)

Creation date: Oct. 30, 2025, 3:32 a.m.

Reference frame: TEME

Reference center: EARTH

Epoch: Oct. 29, 2025, 9:35 p.m. UTC

TLE line 0: 0 HELIOS 1A

TLE line 1: 1 23605U 95033A 25302.89968232 .00004199 00000-0 30750-3 0 9996

TLE line 2: 2 23605 98.2238 173.6919 0014487 83.0885 277.1986 15.04086312633521

Live tracking on map

Real-time ground track for satellite HELIOS 1A.

In-orbit conjunctions

There are no conjunctions computed for HELIOS 1A, at the moment. Check back to stay up to date, as we update our databases every day.

Go to all conjunctions

Associated space launch

The Helios program is Europe's military optical reconnaissance system consisting of both a space and a ground segment, which commenced service in 1995, jointly funded by the French, Italian and Spanish governments. The Helios I optical observation satellites, launched in July 1995 and December 1999 respectively, can acquire high resolution images of any point on the globe, with daily revisit capability.

HELIOS 1A was lifted into orbit during the mission ‘Ariane 40 | Helios 1A’, on board a Ariane 40 space rocket.

The launch took place on July 7, 1995, 4:23 p.m. from Ariane Launch Area 2.

For more information about the launch, click the button.

Launch to space Ariane 40 | Helios 1A
Ariane 40 | Helios 1A

Agency: N/A

Status: Launch Successful

Launch date: July 7, 1995, 4:23 p.m. UTC

Rocket: Ariane 40

Launch pad: Ariane Launch Area 2

Location: Guiana Space Centre, French Guiana

...

Latest news about this satellite

There are no fresh news available about this satellite. Check back as we update our databases every day.


Newsletter sign-up

Weekly statistics, charts and insights to help you stay on top of the space industry.